Find Starlink 32657

NORAD ID: 62475 Int'l Des: 2024-254 Owner: SPXS Country: US Constellation: starlink operational
LEOCIRCULAR

当前视图

正在加载3D地球...

About Starlink 32657

Starlink 32657 (NORAD 62475) is a starlink constellation satellite (v2 mini) launched Dec 31, 2024 by SPXS of US. It operates in LEO, CIRCULAR orbit with a mass of 730.00 kg.

关于 Starlink 32657

正在加载描述...

即将过境

Passes for default location (London). Set your location on the main map for personalized predictions.

高度历史

Loading altitude history...

两行轨道根数

1 62475U 24254P 26166.76111984 .00014549 00000-0 53701-3 0 9991
2 62475 42.9993 185.8154 0001836 266.8457 93.2184 15.27590618 82461
Epoch: Jun 15, 2026 • Age: 25 hours

当前状态

高度 484.5 km
速度 7.63 km/s
星下点 30.85°N, 20.56°E
发射日期 Dec 31, 2024
运行时间 1.4 years
类型 internet

技术详情

分类 Payload
质量 730.00 kg
干质量 700.00 kg
总质量 730.00 kg
长度 0.30 m
直径 4.10 m
跨度 29.00 m
形状 Box + pan
制造商 SPXS
平台类型 Starlink V2M
阶段状态 In Orbit
所有者/国家 SPXS/US

Most Searched